Stündliche Wetter Holovyn

Heute, 20 Juni, Sonntag

Zeit Temperatur Niederschläge Wind Luftdruck Luftfeuchtigkeit
00:00 +19°C° 0.3 mm 2 m/S 747 mmHg 90%
01:00 +18°C° 0.3 mm 2 m/S 747 mmHg 91%
02:00 +19°C° 0 mm 1 m/S 747 mmHg 92%
03:00 +18°C° 0.5 mm 2 m/S 747 mmHg 93%
04:00 +18°C° 0.5 mm 2 m/S 746 mmHg 94%
05:00 +18°C° 0.5 mm 2 m/S 746 mmHg 96%
06:00 +20°C° 0.4 mm 3 m/S 746 mmHg 92%
07:00 +21°C° 0.4 mm 4 m/S 746 mmHg 89%
08:00 +22°C° 0 mm 4 m/S 747 mmHg 86%
09:00 +25°C° 0.1 mm 5 m/S 747 mmHg 80%
10:00 +26°C° 0.1 mm 5 m/S 746 mmHg 73%
11:00 +27°C° 0.1 mm 5 m/S 746 mmHg 67%
12:00 +28°C° 0.1 mm 5 m/S 746 mmHg 63%
13:00 +29°C° 0.1 mm 5 m/S 746 mmHg 59%
14:00 +30°C° 0.1 mm 5 m/S 745 mmHg 54%
15:00 +29°C° 0.1 mm 5 m/S 745 mmHg 56%
16:00 +29°C° 0.1 mm 5 m/S 745 mmHg 59%
17:00 +29°C° 0.1 mm 6 m/S 745 mmHg 61%
18:00 +27°C° 0 mm 5 m/S 745 mmHg 67%
19:00 +25°C° 0 mm 4 m/S 745 mmHg 73%
20:00 +24°C° 0 mm 3 m/S 745 mmHg 79%
21:00 +22°C° 0 mm 3 m/S 745 mmHg 82%
22:00 +21°C° 0 mm 3 m/S 745 mmHg 85%
23:00 +20°C° 0 mm 3 m/S 745 mmHg 88%

Morgen, 21 Juni, Montag

Zeit Temperatur Niederschläge Wind Luftdruck Luftfeuchtigkeit
00:00 +19°C° 0 mm 3 m/S 744 mmHg 90%
01:00 +19°C° 0 mm 3 m/S 744 mmHg 92%
02:00 +18°C° 0 mm 2 m/S 744 mmHg 95%
03:00 +18°C° 0 mm 2 m/S 744 mmHg 95%
04:00 +18°C° 0 mm 3 m/S 744 mmHg 96%
05:00 +18°C° 0 mm 3 m/S 744 mmHg 96%
06:00 +19°C° 0 mm 3 m/S 744 mmHg 93%
07:00 +20°C° 0 mm 3 m/S 744 mmHg 90%
08:00 +21°C° 0 mm 3 m/S 744 mmHg 87%
09:00 +22°C° 0.1 mm 3 m/S 744 mmHg 80%
10:00 +25°C° 0.1 mm 4 m/S 744 mmHg 73%
11:00 +27°C° 0.1 mm 4 m/S 744 mmHg 66%
12:00 +28°C° 0.3 mm 4 m/S 743 mmHg 64%
13:00 +28°C° 0.3 mm 4 m/S 743 mmHg 62%
14:00 +29°C° 0.3 mm 4 m/S 743 mmHg 60%
15:00 +28°C° 0.3 mm 4 m/S 743 mmHg 64%
16:00 +28°C° 0.3 mm 3 m/S 743 mmHg 67%
17:00 +27°C° 0.3 mm 3 m/S 743 mmHg 71%
18:00 +26°C° 0.1 mm 3 m/S 743 mmHg 76%
19:00 +25°C° 0.1 mm 3 m/S 743 mmHg 80%
20:00 +24°C° 0.1 mm 2 m/S 743 mmHg 85%
21:00 +23°C° 0 mm 2 m/S 743 mmHg 87%
22:00 +21°C° 0 mm 2 m/S 743 mmHg 89%
23:00 +20°C° 0 mm 2 m/S 743 mmHg 91%

übermorgen, 22 Juni, Dienstag

Zeit Temperatur Niederschläge Wind Luftdruck Luftfeuchtigkeit
00:00 +20°C° 0 mm 2 m/S 743 mmHg 91%
01:00 +20°C° 0 mm 2 m/S 743 mmHg 92%
02:00 +19°C° 0 mm 2 m/S 743 mmHg 92%
03:00 +19°C° 0 mm 2 m/S 743 mmHg 92%
04:00 +19°C° 0 mm 2 m/S 743 mmHg 93%
05:00 +19°C° 0 mm 2 m/S 743 mmHg 93%
06:00 +21°C° 0 mm 3 m/S 743 mmHg 87%
07:00 +22°C° 0 mm 3 m/S 744 mmHg 81%
08:00 +25°C° 0 mm 3 m/S 744 mmHg 75%
09:00 +27°C° 0 mm 3 m/S 744 mmHg 70%
10:00 +28°C° 0 mm 4 m/S 744 mmHg 65%
11:00 +29°C° 0 mm 4 m/S 744 mmHg 59%
12:00 +30°C° 0 mm 4 m/S 744 mmHg 57%
13:00 +32°C° 0 mm 4 m/S 744 mmHg 55%
14:00 +32°C° 0 mm 4 m/S 744 mmHg 53%
15:00 +31°C° 0 mm 3 m/S 744 mmHg 54%
16:00 +31°C° 0 mm 3 m/S 744 mmHg 56%
17:00 +31°C° 0 mm 2 m/S 744 mmHg 58%
18:00 +30°C° 0 mm 2 m/S 744 mmHg 64%
19:00 +28°C° 0 mm 2 m/S 744 mmHg 70%
20:00 +26°C° 0 mm 2 m/S 743 mmHg 76%
21:00 +25°C° 0 mm 2 m/S 744 mmHg 79%
22:00 +24°C° 0 mm 2 m/S 744 mmHg 82%
23:00 +23°C° 0 mm 2 m/S 744 mmHg 85%

23 Juni, Mittwoch

Zeit Temperatur Niederschläge Wind Luftdruck Luftfeuchtigkeit
00:00 +23°C° 0 mm 2 m/S 744 mmHg 88%
01:00 +21°C° 0 mm 2 m/S 744 mmHg 90%
02:00 +21°C° 0 mm 2 m/S 744 mmHg 93%
03:00 +20°C° 0 mm 2 m/S 744 mmHg 92%
04:00 +20°C° 0 mm 3 m/S 745 mmHg 92%
05:00 +20°C° 0 mm 3 m/S 745 mmHg 92%
06:00 +22°C° 0 mm 3 m/S 745 mmHg 87%
07:00 +24°C° 0 mm 3 m/S 745 mmHg 81%
08:00 +26°C° 0 mm 3 m/S 745 mmHg 76%
09:00 +27°C° 0 mm 2 m/S 746 mmHg 71%
10:00 +29°C° 0 mm 2 m/S 746 mmHg 67%
11:00 +30°C° 0 mm 2 m/S 746 mmHg 62%
12:00 +31°C° 0 mm 2 m/S 746 mmHg 58%
13:00 +32°C° 0 mm 2 m/S 746 mmHg 55%
14:00 +32°C° 0 mm 2 m/S 746 mmHg 51%
15:00 +32°C° 0 mm 2 m/S 746 mmHg 52%
16:00 +32°C° 0 mm 2 m/S 746 mmHg 52%
17:00 +32°C° 0 mm 2 m/S 746 mmHg 53%
18:00 +30°C° 0 mm 2 m/S 746 mmHg 61%
19:00 +29°C° 0 mm 2 m/S 745 mmHg 68%
20:00 +27°C° 0 mm 2 m/S 745 mmHg 75%
21:00 +26°C° 0 mm 1 m/S 746 mmHg 77%
22:00 +25°C° 0 mm 1 m/S 746 mmHg 80%
23:00 +22°C° 0 mm 0 m/S 746 mmHg 82%

24 Juni, Donnerstag

Zeit Temperatur Niederschläge Wind Luftdruck Luftfeuchtigkeit
00:00 +22°C° 0 mm 0 m/S 746 mmHg 83%
01:00 +21°C° 0 mm 0 m/S 746 mmHg 85%
02:00 +21°C° 0 mm 0 m/S 746 mmHg 86%
03:00 +23°C° 0 mm 1 m/S 746 mmHg 87%
04:00 +23°C° 0 mm 1 m/S 746 mmHg 87%
05:00 +23°C° 0 mm 1 m/S 746 mmHg 87%
06:00 +24°C° 0 mm 1 m/S 746 mmHg 83%
07:00 +26°C° 0 mm 1 m/S 746 mmHg 79%
08:00 +27°C° 0 mm 1 m/S 746 mmHg 75%
09:00 +28°C° 0 mm 1 m/S 746 mmHg 70%
10:00 +30°C° 0 mm 1 m/S 746 mmHg 66%
11:00 +31°C° 0 mm 1 m/S 746 mmHg 61%
12:00 +31°C° 0 mm 1 m/S 746 mmHg 58%
13:00 +32°C° 0 mm 1 m/S 746 mmHg 56%
14:00 +32°C° 0 mm 1 m/S 745 mmHg 53%
15:00 +32°C° 0 mm 1 m/S 745 mmHg 55%
16:00 +32°C° 0 mm 1 m/S 745 mmHg 56%
17:00 +32°C° 0 mm 1 m/S 745 mmHg 58%
18:00 +30°C° 0.7 mm 2 m/S 745 mmHg 65%
19:00 +28°C° 0.7 mm 2 m/S 744 mmHg 73%
20:00 +26°C° 0.7 mm 2 m/S 744 mmHg 81%
21:00 +25°C° 0.7 mm 2 m/S 744 mmHg 83%
22:00 +24°C° 0.7 mm 2 m/S 744 mmHg 86%
23:00 +23°C° 0.7 mm 2 m/S 744 mmHg 89%

25 Juni, Freitag

Zeit Temperatur Niederschläge Wind Luftdruck Luftfeuchtigkeit
00:00 +23°C° 0.1 mm 2 m/S 744 mmHg 90%
01:00 +23°C° 0.1 mm 2 m/S 744 mmHg 90%
02:00 +23°C° 0.1 mm 2 m/S 743 mmHg 91%
03:00 +21°C° 0.4 mm 2 m/S 743 mmHg 92%
04:00 +21°C° 0.4 mm 2 m/S 743 mmHg 93%
05:00 +21°C° 0.4 mm 3 m/S 743 mmHg 94%
06:00 +23°C° 0 mm 2 m/S 743 mmHg 90%
07:00 +25°C° 0 mm 2 m/S 743 mmHg 85%
08:00 +26°C° 0 mm 2 m/S 742 mmHg 80%
09:00 +27°C° 0 mm 2 m/S 742 mmHg 73%
10:00 +29°C° 0 mm 2 m/S 743 mmHg 67%
11:00 +30°C° 0 mm 3 m/S 743 mmHg 60%
12:00 +31°C° 0 mm 3 m/S 743 mmHg 57%
13:00 +33°C° 0 mm 3 m/S 742 mmHg 54%
14:00 +34°C° 0 mm 3 m/S 742 mmHg 52%
15:00 +33°C° 0.1 mm 3 m/S 742 mmHg 55%
16:00 +33°C° 0.1 mm 3 m/S 742 mmHg 59%
17:00 +33°C° 0.1 mm 3 m/S 741 mmHg 63%
18:00 +30°C° 0.4 mm 3 m/S 741 mmHg 70%
19:00 +28°C° 0.4 mm 3 m/S 741 mmHg 78%
20:00 +26°C° 0.4 mm 3 m/S 741 mmHg 85%
21:00 +25°C° 0 mm 3 m/S 742 mmHg 88%
22:00 +24°C° 0 mm 3 m/S 742 mmHg 91%
23:00 +22°C° 0 mm 3 m/S 742 mmHg 93%
Mehr zeigen

Wir brauchen deine Erlaubnis

Meteoprog und unser Service Anbieter werden persönliche Daten aufbewahren, so wie Cookies, Geräte Bezeichnung oder ähnliche Technologien von deinem Gerät und Prozess, so wie Persönliche Daten Inhalte und Werbungen, genauso wie social Media und den Verkehr zu analysieren.

  • Aufbewahrung und/oder Zugang zu deiner Geräte Informationen.

    Cookies, Geräte Bezeichnung oder andere Informationen, können aufbewahrt oder Zugang zu deinem Gerät erhalten, für den Grund, der oben angegeben wird.

  • Personalisierte Werbung und Inhalte, Messungen, Einblick in das Publikum und Produkt Entwicklung.

    Werbungen und Inhalte können personalisiert werden, basierend auf ein Profil. Mehr Daten können besser personalisierte Werbungen und Inhalte hinzufügen. Werbung und Inhalte können gezeigt und gemessen werden. Einblicke über das Publikum, welche die Werbung gesehen haben und den Inhalt, können abgeleitet werden. So wie Daten können genutzt werden, um es zu verbessern oder die Benutzer Erfahrung zu verbessern das System und die Software.

Wenn du “Ich stimme zu” klickst, erlaubst du uns, die Cookies zu benutzen die Geräte Bezeichnung, den Web oder ähnliche Technologien zu benutzen. Deine Settings, können in deinem Gerät bei deinem Browser geändert werden.

Für den bestimmten Zweck, berechtigten Interessen beruhen darauf, mehr als auf den Inhalt. Du kannst mehr darüber in unseren Privaten und Cookie Politik lesen.